Location: Grand Moustoir
(47.8355°N, 3.3120°W)
Time: 19:51:14
(UTC+00:00)

CZ-4 R/B - Pass Details

Date: 20 January 2020
Orbit: 534 x 597 km, 97.7° (Epoch: 21 February)

Event Time Altitude Azimuth Distance (km) Brightness Sun altitude
Rises 06:34:11 0° 26° (NNE) 2,851 5.1 -13.2°
Reaches altitude 10° 06:36:48 10° 42° (NE) 1,945 4.5 -12.8°
Maximum altitude 06:40:05 22° 93° (E) 1,339 4.3 -12.3°
Drops below altitude 10° 06:43:20 10° 144° (SE) 1,928 4.9 -11.7°
Sets 06:45:54 0° 160° (SSE) 2,819 5.5 -11.3°
